Погода в Пуэрто де Сантьяго

Испания     28°14′07″N   16°50′29″W
темп.,
°C
ветер,
м/с
пор.,
м/с
влажн.,
%
обл.,
%
осадки,
мм/ч
давл.,
гПа
погр.,
м
22 апреля, чт
чт2201:00+14св12573 0.0 101960
04:00+13св12542 0.0 101737
07:00+13всв22525 0.0 101734
10:00+17ю11471 0.0 1018344
13:00+19зсз32534 0.0 1018645
16:00+19зсз32531 0.0 1017774
19:00+19ссз33440 0.0 1016513
22:00+16ссз22530 0.0 1018133
23 апреля, пт
пт2301:00+15с115436 0.0 101841
04:00+14с335847 0.0 101655
07:00+14ссв325498 0.0 101633
10:00+17ссз235860 0.0 1017564
13:00+19сз43607 0.0 1016885
16:00+17ссз337858 0.1 1015637
19:00+16сз337236 0.1 1015570
22:00+12с228846 0.0 1017209
24 апреля, сб
сб2401:00+11с22846 0.0 1017117
04:00+11с338552 0.0 1015170
07:00+10ссв228137 0.0 1014232
10:00+13с12613 0.0 1014582
13:00+16зсз33564 0.0 1014964
16:00+17зсз65511 0.0 1013886
19:00+14зсз55581 0.0 1013627
22:00+11з248441 0.0 1014432
25 апреля, вс
вс2501:00+11сз228533 0.1 1014211
04:00+10с339054 0.1 1012122
07:00+9ссз128314 0.1 1012100
10:00+14сз23625 0.0 1012426
13:00+17зсз54503 0.0 1012903
16:00+15зсз656837 0.0 1012725
19:00+14зсз667956 0.1 1013582
22:00+13з238456 0.1 1014279
26 апреля, пн
пн2601:00+13ссз228323 0.1 1014278
04:00+11ссв11860 0.0 101328
07:00+10св00820 0.1 101335
10:00+15з11593 0.0 1013541
13:00+17зюз226249 0.0 1014895
16:00+15з327982 0.1 1013686
19:00+14сз548679 0.2 1013477
22:00+13ссз118755 0.1 1014238